Year,Month,Day,Hour,Minute,Value (Times are PST for temperature in C)
2010,05,07,00,00,4.90
2010,05,07,00,01,4.90
2010,05,07,00,02,4.90
2010,05,07,00,03,4.90
2010,05,07,00,04,4.80
2010,05,07,00,05,4.80
2010,05,07,00,06,4.80
2010,05,07,00,07,4.80
2010,05,07,00,08,4.80
2010,05,07,00,09,4.80
2010,05,07,00,10,4.80
2010,05,07,00,11,4.80
2010,05,07,00,12,4.80
2010,05,07,00,13,4.70
2010,05,07,00,14,4.70
2010,05,07,00,15,4.70
2010,05,07,00,16,4.70
2010,05,07,00,17,4.70
2010,05,07,00,18,4.70
2010,05,07,00,19,4.60
2010,05,07,00,20,4.60
2010,05,07,00,21,4.60
2010,05,07,00,22,4.60
2010,05,07,00,23,4.60
2010,05,07,00,24,4.60
2010,05,07,00,25,4.60
2010,05,07,00,26,4.60
2010,05,07,00,27,4.60
2010,05,07,00,28,4.60
2010,05,07,00,29,4.50
2010,05,07,00,30,4.50
2010,05,07,00,31,4.50
2010,05,07,00,32,4.40
2010,05,07,00,33,4.40
2010,05,07,00,34,4.40
2010,05,07,00,35,4.30
2010,05,07,00,36,4.30
2010,05,07,00,37,4.30
2010,05,07,00,38,4.20
2010,05,07,00,39,4.20
2010,05,07,00,40,4.20
2010,05,07,00,41,4.20
2010,05,07,00,42,4.20
2010,05,07,00,43,4.20
2010,05,07,00,44,4.10
2010,05,07,00,45,4.10
2010,05,07,00,46,4.10
2010,05,07,00,47,4.10
2010,05,07,00,48,4.10
2010,05,07,00,49,4.10
2010,05,07,00,50,4.10
2010,05,07,00,51,4.10
2010,05,07,00,52,4.10
2010,05,07,00,53,4.00
2010,05,07,00,54,4.00
2010,05,07,00,55,4.00
2010,05,07,00,56,4.00
2010,05,07,00,57,4.00
2010,05,07,00,58,4.00
2010,05,07,00,59,3.90
2010,05,07,01,00,3.90
2010,05,07,01,01,3.90
2010,05,07,01,02,3.90
2010,05,07,01,03,3.90
2010,05,07,01,04,3.90
2010,05,07,01,05,3.80
2010,05,07,01,06,3.80
2010,05,07,01,07,3.80
2010,05,07,01,08,3.80
2010,05,07,01,09,3.80
2010,05,07,01,10,3.80
2010,05,07,01,11,3.80
2010,05,07,01,12,3.80
2010,05,07,01,13,3.70
2010,05,07,01,14,3.70
2010,05,07,01,15,3.70
2010,05,07,01,16,3.70
2010,05,07,01,17,3.70
2010,05,07,01,18,3.70
2010,05,07,01,19,3.60
2010,05,07,01,20,3.60
2010,05,07,01,21,3.60
2010,05,07,01,22,3.60
2010,05,07,01,23,3.60
2010,05,07,01,24,3.50
2010,05,07,01,25,3.50
2010,05,07,01,26,3.50
2010,05,07,01,27,3.50
2010,05,07,01,28,3.50
2010,05,07,01,29,3.50
2010,05,07,01,30,3.50
2010,05,07,01,31,3.50
2010,05,07,01,32,3.50
2010,05,07,01,33,3.50
2010,05,07,01,34,3.50
2010,05,07,01,35,3.50
2010,05,07,01,36,3.50
2010,05,07,01,37,3.50
2010,05,07,01,38,3.50
2010,05,07,01,39,3.50
2010,05,07,01,40,3.50
2010,05,07,01,41,3.40
2010,05,07,01,42,3.40
2010,05,07,01,43,3.40
2010,05,07,01,44,3.40
2010,05,07,01,45,3.40
2010,05,07,01,46,3.30
2010,05,07,01,47,3.30
2010,05,07,01,48,3.30
2010,05,07,01,49,3.40
2010,05,07,01,50,3.40
2010,05,07,01,51,3.40
2010,05,07,01,52,3.40
2010,05,07,01,53,3.40
2010,05,07,01,54,3.50
2010,05,07,01,55,3.50
2010,05,07,01,56,3.50
2010,05,07,01,57,3.50
2010,05,07,01,58,3.50
2010,05,07,01,59,3.50
2010,05,07,02,00,3.40
2010,05,07,02,01,3.40
2010,05,07,02,02,3.40
2010,05,07,02,03,3.40
2010,05,07,02,04,3.40
2010,05,07,02,05,3.40
2010,05,07,02,06,3.40
2010,05,07,02,07,3.40
2010,05,07,02,08,3.40
2010,05,07,02,09,3.40
2010,05,07,02,10,3.40
2010,05,07,02,11,3.40
2010,05,07,02,12,3.30
2010,05,07,02,13,3.30
2010,05,07,02,14,3.30
2010,05,07,02,15,3.30
2010,05,07,02,16,3.30
2010,05,07,02,17,3.20
2010,05,07,02,18,3.20
2010,05,07,02,19,3.20
2010,05,07,02,20,3.20
2010,05,07,02,21,3.10
2010,05,07,02,22,3.10
2010,05,07,02,23,3.10
2010,05,07,02,24,3.10
2010,05,07,02,25,3.00
2010,05,07,02,26,3.00
2010,05,07,02,27,3.00
2010,05,07,02,28,2.90
2010,05,07,02,29,2.90
2010,05,07,02,30,2.90
2010,05,07,02,31,2.90
2010,05,07,02,32,2.90
2010,05,07,02,33,2.90
2010,05,07,02,34,2.80
2010,05,07,02,35,2.80
2010,05,07,02,36,2.80
2010,05,07,02,37,2.80
2010,05,07,02,38,2.80
2010,05,07,02,39,2.80
2010,05,07,02,40,2.70
2010,05,07,02,41,2.70
2010,05,07,02,42,2.70
2010,05,07,02,43,2.70
2010,05,07,02,44,2.80
2010,05,07,02,45,2.80
2010,05,07,02,46,2.80
2010,05,07,02,47,2.80
2010,05,07,02,48,2.90
2010,05,07,02,49,2.90
2010,05,07,02,50,2.90
2010,05,07,02,51,2.90
2010,05,07,02,52,2.90
2010,05,07,02,53,2.90
2010,05,07,02,54,2.90
2010,05,07,02,55,2.90
2010,05,07,02,56,2.90
2010,05,07,02,57,2.90
2010,05,07,02,58,2.90
2010,05,07,02,59,2.90
2010,05,07,03,00,2.90
2010,05,07,03,01,2.80
2010,05,07,03,02,2.80
2010,05,07,03,03,2.80
2010,05,07,03,04,2.80
2010,05,07,03,05,2.80
2010,05,07,03,06,2.80
2010,05,07,03,07,2.80
2010,05,07,03,08,2.70
2010,05,07,03,09,2.70
2010,05,07,03,10,2.70
2010,05,07,03,11,2.70
2010,05,07,03,12,2.70
2010,05,07,03,13,2.60
2010,05,07,03,14,2.60
2010,05,07,03,15,2.50
2010,05,07,03,16,2.50
2010,05,07,03,17,2.50
2010,05,07,03,18,2.40
2010,05,07,03,19,2.40
2010,05,07,03,20,2.40
2010,05,07,03,21,2.30
2010,05,07,03,22,2.30
2010,05,07,03,23,2.30
2010,05,07,03,24,2.30
2010,05,07,03,25,2.20
2010,05,07,03,26,2.20
2010,05,07,03,27,2.20
2010,05,07,03,28,2.20
2010,05,07,03,29,2.20
2010,05,07,03,30,2.20
2010,05,07,03,31,2.20
2010,05,07,03,32,2.20
2010,05,07,03,33,2.20
2010,05,07,03,34,2.20
2010,05,07,03,35,2.20
2010,05,07,03,36,2.20
2010,05,07,03,37,2.20
2010,05,07,03,38,2.20
2010,05,07,03,39,2.20
2010,05,07,03,40,2.20
2010,05,07,03,41,2.30
2010,05,07,03,42,2.30
2010,05,07,03,43,2.30
2010,05,07,03,44,2.30
2010,05,07,03,45,2.30
2010,05,07,03,46,2.30
2010,05,07,03,47,2.30
2010,05,07,03,48,2.40
2010,05,07,03,49,2.40
2010,05,07,03,50,2.40
2010,05,07,03,51,2.40
2010,05,07,03,52,2.40
2010,05,07,03,53,2.40
2010,05,07,03,54,2.40
2010,05,07,03,55,2.40
2010,05,07,03,56,2.40
2010,05,07,03,57,2.40
2010,05,07,03,58,2.30
2010,05,07,03,59,2.30
2010,05,07,04,00,2.30
2010,05,07,04,01,2.20
2010,05,07,04,02,2.20
2010,05,07,04,03,2.20
2010,05,07,04,04,2.20
2010,05,07,04,05,2.10
2010,05,07,04,06,2.10
2010,05,07,04,07,2.10
2010,05,07,04,08,2.10
2010,05,07,04,09,2.10
2010,05,07,04,10,2.00
2010,05,07,04,11,2.00
2010,05,07,04,12,1.90
2010,05,07,04,13,1.90
2010,05,07,04,14,1.90
2010,05,07,04,15,1.90
2010,05,07,04,16,1.90
2010,05,07,04,17,1.90
2010,05,07,04,18,1.80
2010,05,07,04,19,1.80
2010,05,07,04,20,1.80
2010,05,07,04,21,1.80
2010,05,07,04,22,1.80
2010,05,07,04,23,1.70
2010,05,07,04,24,1.70
2010,05,07,04,25,1.70
2010,05,07,04,26,1.70
2010,05,07,04,27,1.70
2010,05,07,04,28,1.70
2010,05,07,04,29,1.70
2010,05,07,04,30,1.70
2010,05,07,04,31,1.70
2010,05,07,04,32,1.70
2010,05,07,04,33,1.70
2010,05,07,04,34,1.70
2010,05,07,04,35,1.70
2010,05,07,04,36,1.70
2010,05,07,04,37,1.70
2010,05,07,04,38,1.80
2010,05,07,04,39,1.80
2010,05,07,04,40,1.80
2010,05,07,04,41,1.70
2010,05,07,04,42,1.70
2010,05,07,04,43,1.70
2010,05,07,04,44,1.70
2010,05,07,04,45,1.60
2010,05,07,04,46,1.60
2010,05,07,04,47,1.60
2010,05,07,04,48,1.60
2010,05,07,04,49,1.60
2010,05,07,04,50,1.60
2010,05,07,04,51,1.50
2010,05,07,04,52,1.50
2010,05,07,04,53,1.40
2010,05,07,04,54,1.40
2010,05,07,04,55,1.40
2010,05,07,04,56,1.40
2010,05,07,04,57,1.30
2010,05,07,04,58,1.30
2010,05,07,04,59,1.30
2010,05,07,05,00,1.30
2010,05,07,05,01,1.30
2010,05,07,05,02,1.30
2010,05,07,05,03,1.30
2010,05,07,05,04,1.30
2010,05,07,05,05,1.30
2010,05,07,05,06,1.30
2010,05,07,05,07,1.30
2010,05,07,05,08,1.30
2010,05,07,05,09,1.30
2010,05,07,05,10,1.30
2010,05,07,05,11,1.30
2010,05,07,05,12,1.30
2010,05,07,05,13,1.30
2010,05,07,05,14,1.40
2010,05,07,05,15,1.40
2010,05,07,05,16,1.50
2010,05,07,05,17,1.60
2010,05,07,05,18,1.60
2010,05,07,05,19,1.60
2010,05,07,05,20,1.70
2010,05,07,05,21,1.70
2010,05,07,05,22,1.70
2010,05,07,05,23,1.70
2010,05,07,05,24,1.70
2010,05,07,05,25,1.70
2010,05,07,05,26,1.70
2010,05,07,05,27,1.70
2010,05,07,05,28,1.70
2010,05,07,05,29,1.70
2010,05,07,05,30,1.70
2010,05,07,05,31,1.70
2010,05,07,05,32,1.60
2010,05,07,05,33,1.60
2010,05,07,05,34,1.50
2010,05,07,05,35,1.50
2010,05,07,05,36,1.40
2010,05,07,05,37,1.40
2010,05,07,05,38,1.30
2010,05,07,05,39,1.30
2010,05,07,05,40,1.30
2010,05,07,05,41,1.30
2010,05,07,05,42,1.30
2010,05,07,05,43,1.30
2010,05,07,05,44,1.30
2010,05,07,05,45,1.30
2010,05,07,05,46,1.30
2010,05,07,05,47,1.30
2010,05,07,05,48,1.30
2010,05,07,05,49,1.30
2010,05,07,05,50,1.30
2010,05,07,05,51,1.30
2010,05,07,05,52,1.30
2010,05,07,05,53,1.30
2010,05,07,05,54,1.30
2010,05,07,05,55,1.30
2010,05,07,05,56,1.40
2010,05,07,05,57,1.40
2010,05,07,05,58,1.40
2010,05,07,05,59,1.40
2010,05,07,06,00,1.40
2010,05,07,06,01,1.40
2010,05,07,06,02,1.40
2010,05,07,06,03,1.40
2010,05,07,06,04,1.40
2010,05,07,06,05,1.40
2010,05,07,06,06,1.40
2010,05,07,06,07,1.40
2010,05,07,06,08,1.40
2010,05,07,06,09,1.30
2010,05,07,06,10,1.30
2010,05,07,06,11,1.30
2010,05,07,06,12,1.30
2010,05,07,06,13,1.30
2010,05,07,06,14,1.40
2010,05,07,06,15,1.40
2010,05,07,06,16,1.40
2010,05,07,06,17,1.50
2010,05,07,06,18,1.50
2010,05,07,06,19,1.50
2010,05,07,06,20,1.50
2010,05,07,06,21,1.50
2010,05,07,06,22,1.50
2010,05,07,06,23,1.50
2010,05,07,06,24,1.50
2010,05,07,06,25,1.50
2010,05,07,06,26,1.60
2010,05,07,06,27,1.60
2010,05,07,06,28,1.60
2010,05,07,06,29,1.60
2010,05,07,06,30,1.60
2010,05,07,06,31,1.70
2010,05,07,06,32,1.70
2010,05,07,06,33,1.80
2010,05,07,06,34,1.90
2010,05,07,06,35,1.90
2010,05,07,06,36,2.10
2010,05,07,06,37,2.20
2010,05,07,06,38,2.30
2010,05,07,06,39,2.50
2010,05,07,06,40,2.80
2010,05,07,06,41,3.10
2010,05,07,06,42,3.30
2010,05,07,06,43,3.60
2010,05,07,06,44,3.90
2010,05,07,06,45,4.10
2010,05,07,06,46,4.40
2010,05,07,06,47,4.50
2010,05,07,06,48,4.70
2010,05,07,06,49,4.90
2010,05,07,06,50,5.00
2010,05,07,06,51,5.10
2010,05,07,06,52,5.20
2010,05,07,06,53,5.30
2010,05,07,06,54,5.30
2010,05,07,06,55,5.50
2010,05,07,06,56,5.60
2010,05,07,06,57,5.60
2010,05,07,06,58,5.70
2010,05,07,06,59,5.80
2010,05,07,07,00,5.90
2010,05,07,07,01,6.00
2010,05,07,07,02,6.10
2010,05,07,07,03,6.10
2010,05,07,07,04,6.20
2010,05,07,07,05,6.30
2010,05,07,07,06,6.40
2010,05,07,07,07,6.40
2010,05,07,07,08,6.50
2010,05,07,07,09,6.60
2010,05,07,07,10,6.70
2010,05,07,07,11,6.70
2010,05,07,07,12,6.80
2010,05,07,07,13,6.90
2010,05,07,07,14,6.90
2010,05,07,07,15,7.00
2010,05,07,07,16,7.10
2010,05,07,07,17,7.20
2010,05,07,07,18,7.20
2010,05,07,07,19,7.30
2010,05,07,07,20,7.40
2010,05,07,07,21,7.50
2010,05,07,07,22,7.60
2010,05,07,07,23,7.60
2010,05,07,07,24,7.70
2010,05,07,07,25,7.80
2010,05,07,07,26,7.80
2010,05,07,07,27,7.90
2010,05,07,07,28,7.90
2010,05,07,07,29,8.00
2010,05,07,07,30,8.10
2010,05,07,07,31,8.10
2010,05,07,07,32,8.20
2010,05,07,07,33,8.20
2010,05,07,07,34,8.30
2010,05,07,07,35,8.40
2010,05,07,07,36,8.40
2010,05,07,07,37,8.50
2010,05,07,07,38,8.50
2010,05,07,07,39,8.60
2010,05,07,07,40,8.60
2010,05,07,07,41,8.70
2010,05,07,07,42,8.80
2010,05,07,07,43,8.80
2010,05,07,07,44,8.90
2010,05,07,07,45,8.90
2010,05,07,07,46,8.90
2010,05,07,07,47,9.00
2010,05,07,07,48,9.00
2010,05,07,07,49,9.00
2010,05,07,07,50,9.00
2010,05,07,07,51,9.10
2010,05,07,07,52,9.10
2010,05,07,07,53,9.20
2010,05,07,07,54,9.30
2010,05,07,07,55,9.30
2010,05,07,07,56,9.30
2010,05,07,07,57,9.40
2010,05,07,07,58,9.40
2010,05,07,07,59,9.40
2010,05,07,08,00,9.40
2010,05,07,08,01,9.50
2010,05,07,08,02,9.50
2010,05,07,08,03,9.50
2010,05,07,08,04,9.60
2010,05,07,08,05,9.60
2010,05,07,08,06,9.60
2010,05,07,08,07,9.60
2010,05,07,08,08,9.50
2010,05,07,08,09,9.60
2010,05,07,08,10,9.60
2010,05,07,08,11,9.60
2010,05,07,08,12,9.60
2010,05,07,08,13,9.60
2010,05,07,08,14,9.60
2010,05,07,08,15,9.70
2010,05,07,08,16,9.70
2010,05,07,08,17,9.70
2010,05,07,08,18,9.80
2010,05,07,08,19,9.80
2010,05,07,08,20,9.80
2010,05,07,08,21,9.80
2010,05,07,08,22,9.80
2010,05,07,08,23,9.80
2010,05,07,08,24,9.90
2010,05,07,08,25,9.90
2010,05,07,08,26,10.00
2010,05,07,08,27,10.00
2010,05,07,08,28,10.10
2010,05,07,08,29,10.10
2010,05,07,08,30,10.00
2010,05,07,08,31,10.00
2010,05,07,08,32,9.90
2010,05,07,08,33,9.90
2010,05,07,08,34,9.90
2010,05,07,08,35,9.80
2010,05,07,08,36,9.80
2010,05,07,08,37,9.80
2010,05,07,08,38,9.80
2010,05,07,08,39,9.80
2010,05,07,08,40,9.80
2010,05,07,08,41,9.80
2010,05,07,08,42,9.80
2010,05,07,08,43,9.80
2010,05,07,08,44,9.80
2010,05,07,08,45,9.80
2010,05,07,08,46,9.80
2010,05,07,08,47,9.80
2010,05,07,08,48,9.80
2010,05,07,08,49,9.80
2010,05,07,08,50,9.90
2010,05,07,08,51,9.90
2010,05,07,08,52,9.90
2010,05,07,08,53,9.90
2010,05,07,08,54,9.90
2010,05,07,08,55,9.90
2010,05,07,08,56,9.90
2010,05,07,08,57,9.90
2010,05,07,08,58,9.90
2010,05,07,08,59,10.00
2010,05,07,09,00,10.00
2010,05,07,09,01,10.10
2010,05,07,09,02,10.10
2010,05,07,09,03,10.10
2010,05,07,09,04,10.10
2010,05,07,09,05,10.10
2010,05,07,09,06,10.10
2010,05,07,09,07,10.20
2010,05,07,09,08,10.20
2010,05,07,09,09,10.20
2010,05,07,09,10,10.30
2010,05,07,09,11,10.30
2010,05,07,09,12,10.40
2010,05,07,09,13,10.40
2010,05,07,09,14,10.50
2010,05,07,09,15,10.50
2010,05,07,09,16,10.60
2010,05,07,09,17,10.60
2010,05,07,09,18,10.70
2010,05,07,09,19,10.70
2010,05,07,09,20,10.70
2010,05,07,09,21,10.80
2010,05,07,09,22,10.80
2010,05,07,09,23,10.80
2010,05,07,09,24,10.80
2010,05,07,09,25,10.80
2010,05,07,09,26,10.90
2010,05,07,09,27,10.90
2010,05,07,09,28,10.90
2010,05,07,09,29,11.00
2010,05,07,09,30,11.00
2010,05,07,09,31,11.00
2010,05,07,09,32,11.00
2010,05,07,09,33,11.00
2010,05,07,09,34,11.10
2010,05,07,09,35,11.20
2010,05,07,09,36,11.20
2010,05,07,09,37,11.30
2010,05,07,09,38,11.30
2010,05,07,09,39,11.30
2010,05,07,09,40,11.30
2010,05,07,09,41,11.30
2010,05,07,09,42,11.30
2010,05,07,09,43,11.30
2010,05,07,09,44,11.40
2010,05,07,09,45,11.40
2010,05,07,09,46,11.40
2010,05,07,09,47,11.40
2010,05,07,09,48,11.40
2010,05,07,09,49,11.30
2010,05,07,09,50,11.30
2010,05,07,09,51,11.30
2010,05,07,09,52,11.40
2010,05,07,09,53,11.40
2010,05,07,09,54,11.40
2010,05,07,09,55,11.50
2010,05,07,09,56,11.50
2010,05,07,09,57,11.50
2010,05,07,09,58,11.40
2010,05,07,09,59,11.30
2010,05,07,10,00,11.30
2010,05,07,10,01,11.20
2010,05,07,10,02,11.20
2010,05,07,10,03,11.20
2010,05,07,10,04,11.10
2010,05,07,10,05,11.10
2010,05,07,10,06,11.10
2010,05,07,10,07,11.10
2010,05,07,10,08,11.20
2010,05,07,10,09,11.20
2010,05,07,10,10,11.30
2010,05,07,10,11,11.30
2010,05,07,10,12,11.20
2010,05,07,10,13,11.30
2010,05,07,10,14,11.30
2010,05,07,10,15,11.30
2010,05,07,10,16,11.40
2010,05,07,10,17,11.50
2010,05,07,10,18,11.60
2010,05,07,10,19,11.70
2010,05,07,10,20,11.80
2010,05,07,10,21,11.90
2010,05,07,10,22,11.90
2010,05,07,10,23,11.90
2010,05,07,10,24,12.00
2010,05,07,10,25,11.90
2010,05,07,10,26,11.90
2010,05,07,10,27,11.90
2010,05,07,10,28,11.90
2010,05,07,10,29,11.90
2010,05,07,10,30,11.90
2010,05,07,10,31,11.90
2010,05,07,10,32,11.90
2010,05,07,10,33,11.90
2010,05,07,10,34,12.00
2010,05,07,10,35,12.00
2010,05,07,10,36,11.90
2010,05,07,10,37,11.90
2010,05,07,10,38,12.00
2010,05,07,10,39,12.00
2010,05,07,10,40,11.90
2010,05,07,10,41,11.90
2010,05,07,10,42,11.90
2010,05,07,10,43,12.00
2010,05,07,10,44,12.00
2010,05,07,10,45,12.10
2010,05,07,10,46,12.20
2010,05,07,10,47,12.20
2010,05,07,10,48,12.20
2010,05,07,10,49,12.20
2010,05,07,10,50,12.20
2010,05,07,10,51,12.10
2010,05,07,10,52,12.10
2010,05,07,10,53,12.10
2010,05,07,10,54,12.10
2010,05,07,10,55,12.10
2010,05,07,10,56,12.20
2010,05,07,10,57,12.20
2010,05,07,10,58,12.30
2010,05,07,10,59,12.30
2010,05,07,11,00,12.20
2010,05,07,11,01,12.20
2010,05,07,11,02,12.20
2010,05,07,11,03,12.20
2010,05,07,11,04,12.30
2010,05,07,11,05,12.40
2010,05,07,11,06,12.50
2010,05,07,11,07,12.60
2010,05,07,11,08,12.70
2010,05,07,11,09,12.70
2010,05,07,11,10,12.70
2010,05,07,11,11,12.70
2010,05,07,11,12,12.60
2010,05,07,11,13,12.60
2010,05,07,11,14,12.60
2010,05,07,11,15,12.50
2010,05,07,11,16,12.50
2010,05,07,11,17,12.50
2010,05,07,11,18,12.60
2010,05,07,11,19,12.60
2010,05,07,11,20,12.70
2010,05,07,11,21,12.60
2010,05,07,11,22,12.60
2010,05,07,11,23,12.60
2010,05,07,11,24,12.60
2010,05,07,11,25,12.60
2010,05,07,11,26,12.60
2010,05,07,11,27,12.60
2010,05,07,11,28,12.60
2010,05,07,11,29,12.70
2010,05,07,11,30,12.70
2010,05,07,11,31,12.70
2010,05,07,11,32,12.70
2010,05,07,11,33,12.60
2010,05,07,11,34,12.60
2010,05,07,11,35,12.60
2010,05,07,11,36,12.60
2010,05,07,11,37,12.60
2010,05,07,11,38,12.60
2010,05,07,11,39,12.70
2010,05,07,11,40,12.80
2010,05,07,11,41,12.80
2010,05,07,11,42,12.90
2010,05,07,11,43,12.90
2010,05,07,11,44,13.00
2010,05,07,11,45,12.90
2010,05,07,11,46,12.80
2010,05,07,11,47,12.80
2010,05,07,11,48,12.70
2010,05,07,11,49,12.70
2010,05,07,11,50,12.70
2010,05,07,11,51,12.70
2010,05,07,11,52,12.80
2010,05,07,11,53,12.80
2010,05,07,11,54,12.80
2010,05,07,11,55,12.70
2010,05,07,11,56,12.70
2010,05,07,11,57,12.70
2010,05,07,11,58,12.70
2010,05,07,11,59,12.80
2010,05,07,12,00,12.90
2010,05,07,12,01,13.00
2010,05,07,12,02,13.10
2010,05,07,12,03,13.10
2010,05,07,12,04,13.10
2010,05,07,12,05,13.10
2010,05,07,12,06,13.00
2010,05,07,12,07,13.00
2010,05,07,12,08,13.00
2010,05,07,12,09,13.10
2010,05,07,12,10,13.00
2010,05,07,12,11,13.00
2010,05,07,12,12,13.00
2010,05,07,12,13,13.00
2010,05,07,12,14,13.10
2010,05,07,12,15,13.20
2010,05,07,12,16,13.30
2010,05,07,12,17,13.30
2010,05,07,12,18,13.30
2010,05,07,12,19,13.20
2010,05,07,12,20,13.20
2010,05,07,12,21,13.20
2010,05,07,12,22,13.20
2010,05,07,12,23,13.20
2010,05,07,12,24,13.20
2010,05,07,12,25,13.20
2010,05,07,12,26,13.30
2010,05,07,12,27,13.40
2010,05,07,12,28,13.50
2010,05,07,12,29,13.60
2010,05,07,12,30,13.70
2010,05,07,12,31,13.80
2010,05,07,12,32,13.90
2010,05,07,12,33,13.90
2010,05,07,12,34,13.90
2010,05,07,12,35,14.00
2010,05,07,12,36,14.10
2010,05,07,12,37,14.10
2010,05,07,12,38,14.20
2010,05,07,12,39,14.10
2010,05,07,12,40,14.10
2010,05,07,12,41,14.00
2010,05,07,12,42,13.90
2010,05,07,12,43,13.70
2010,05,07,12,44,13.60
2010,05,07,12,45,13.60
2010,05,07,12,46,13.60
2010,05,07,12,47,13.60
2010,05,07,12,48,13.60
2010,05,07,12,49,13.60
2010,05,07,12,50,13.70
2010,05,07,12,51,13.70
2010,05,07,12,52,13.80
2010,05,07,12,53,13.80
2010,05,07,12,54,13.80
2010,05,07,12,55,13.80
2010,05,07,12,56,13.80
2010,05,07,12,57,13.80
2010,05,07,12,58,13.80
2010,05,07,12,59,13.80
2010,05,07,13,00,13.90
2010,05,07,13,01,14.00
2010,05,07,13,02,14.10
2010,05,07,13,03,14.10
2010,05,07,13,04,14.00
2010,05,07,13,05,13.90
2010,05,07,13,06,13.90
2010,05,07,13,07,13.90
2010,05,07,13,08,13.80
2010,05,07,13,09,13.80
2010,05,07,13,10,13.80
2010,05,07,13,11,13.90
2010,05,07,13,12,14.00
2010,05,07,13,13,14.10
2010,05,07,13,14,14.20
2010,05,07,13,15,14.30
2010,05,07,13,16,14.30
2010,05,07,13,17,14.30
2010,05,07,13,18,14.30
2010,05,07,13,19,14.20
2010,05,07,13,20,14.20
2010,05,07,13,21,14.20
2010,05,07,13,22,14.10
2010,05,07,13,23,14.10
2010,05,07,13,24,14.00
2010,05,07,13,25,14.00
2010,05,07,13,26,13.90
2010,05,07,13,27,13.80
2010,05,07,13,28,13.80
2010,05,07,13,29,13.90
2010,05,07,13,30,14.10
2010,05,07,13,31,14.10
2010,05,07,13,32,14.10
2010,05,07,13,33,14.20
2010,05,07,13,34,14.30
2010,05,07,13,35,14.40
2010,05,07,13,36,14.40
2010,05,07,13,37,14.30
2010,05,07,13,38,14.30
2010,05,07,13,39,14.30
2010,05,07,13,40,14.40
2010,05,07,13,41,14.50
2010,05,07,13,42,14.70
2010,05,07,13,43,14.70
2010,05,07,13,44,14.60
2010,05,07,13,45,14.60
2010,05,07,13,46,14.60
2010,05,07,13,47,14.60
2010,05,07,13,48,14.70
2010,05,07,13,49,14.70
2010,05,07,13,50,14.70
2010,05,07,13,51,14.70
2010,05,07,13,52,14.70
2010,05,07,13,53,14.70
2010,05,07,13,54,14.60
2010,05,07,13,55,14.50
2010,05,07,13,56,14.50
2010,05,07,13,57,14.50
2010,05,07,13,58,14.60
2010,05,07,13,59,14.60
2010,05,07,14,00,14.50
2010,05,07,14,01,14.50
2010,05,07,14,02,14.50
2010,05,07,14,03,14.60
2010,05,07,14,04,14.60
2010,05,07,14,05,14.70
2010,05,07,14,06,14.80
2010,05,07,14,07,14.90
2010,05,07,14,08,15.00
2010,05,07,14,09,15.00
2010,05,07,14,10,15.00
2010,05,07,14,11,15.00
2010,05,07,14,12,15.00
2010,05,07,14,13,15.00
2010,05,07,14,14,15.00
2010,05,07,14,15,15.00
2010,05,07,14,16,14.80
2010,05,07,14,17,14.70
2010,05,07,14,18,14.60
2010,05,07,14,19,14.60
2010,05,07,14,20,14.70
2010,05,07,14,21,14.70
2010,05,07,14,22,14.80
2010,05,07,14,23,14.90
2010,05,07,14,24,15.00
2010,05,07,14,25,15.00
2010,05,07,14,26,15.00
2010,05,07,14,27,15.00
2010,05,07,14,28,15.10
2010,05,07,14,29,15.10
2010,05,07,14,30,15.10
2010,05,07,14,31,15.00
2010,05,07,14,32,15.10
2010,05,07,14,33,15.20
2010,05,07,14,34,15.20
2010,05,07,14,35,15.20
2010,05,07,14,36,15.10
2010,05,07,14,37,15.00
2010,05,07,14,38,15.00
2010,05,07,14,39,15.00
2010,05,07,14,40,15.10
2010,05,07,14,41,15.10
2010,05,07,14,42,15.20
2010,05,07,14,43,15.20
2010,05,07,14,44,15.30
2010,05,07,14,45,15.30
2010,05,07,14,46,15.30
2010,05,07,14,47,15.30
2010,05,07,14,48,15.20
2010,05,07,14,49,15.20
2010,05,07,14,50,15.20
2010,05,07,14,51,15.10
2010,05,07,14,52,15.10
2010,05,07,14,53,15.20
2010,05,07,14,54,15.20
2010,05,07,14,55,15.20
2010,05,07,14,56,15.20
2010,05,07,14,57,15.30
2010,05,07,14,58,15.40
2010,05,07,14,59,15.40
2010,05,07,15,00,15.40
2010,05,07,15,01,15.30
2010,05,07,15,02,15.30
2010,05,07,15,03,15.30
2010,05,07,15,04,15.30
2010,05,07,15,05,15.30
2010,05,07,15,06,15.30
2010,05,07,15,07,15.30
2010,05,07,15,08,15.30
2010,05,07,15,09,15.30
2010,05,07,15,10,15.30
2010,05,07,15,11,15.40
2010,05,07,15,12,15.40
2010,05,07,15,13,15.50
2010,05,07,15,14,15.50
2010,05,07,15,15,15.50
2010,05,07,15,16,15.50
2010,05,07,15,17,15.50
2010,05,07,15,18,15.60
2010,05,07,15,19,15.60
2010,05,07,15,20,15.60
2010,05,07,15,21,15.60
2010,05,07,15,22,15.60
2010,05,07,15,23,15.60
2010,05,07,15,24,15.70
2010,05,07,15,25,15.70
2010,05,07,15,26,15.70
2010,05,07,15,27,15.70
2010,05,07,15,28,15.80
2010,05,07,15,29,15.80
2010,05,07,15,30,15.80
2010,05,07,15,31,15.80
2010,05,07,15,32,15.80
2010,05,07,15,33,15.80
2010,05,07,15,34,15.80
2010,05,07,15,35,15.80
2010,05,07,15,36,16.00
2010,05,07,15,37,16.00
2010,05,07,15,38,16.10
2010,05,07,15,39,16.10
2010,05,07,15,40,16.10
2010,05,07,15,41,16.00
2010,05,07,15,42,16.00
2010,05,07,15,43,16.00
2010,05,07,15,44,16.00
2010,05,07,15,45,15.90
2010,05,07,15,46,15.90
2010,05,07,15,47,15.90
2010,05,07,15,48,15.90
2010,05,07,15,49,15.90
2010,05,07,15,50,15.90
2010,05,07,15,51,15.80
2010,05,07,15,52,15.80
2010,05,07,15,53,15.80
2010,05,07,15,54,15.90
2010,05,07,15,55,15.90
2010,05,07,15,56,16.00
2010,05,07,15,57,16.00
2010,05,07,15,58,16.10
2010,05,07,15,59,16.10
2010,05,07,16,00,16.10
2010,05,07,16,01,16.10
2010,05,07,16,02,16.00
2010,05,07,16,03,16.00
2010,05,07,16,04,16.00
2010,05,07,16,05,16.10
2010,05,07,16,06,16.10
2010,05,07,16,07,16.10
2010,05,07,16,08,16.10
2010,05,07,16,09,16.00
2010,05,07,16,10,16.00
2010,05,07,16,11,15.90
2010,05,07,16,12,15.90
2010,05,07,16,13,15.80
2010,05,07,16,14,15.80
2010,05,07,16,15,15.80
2010,05,07,16,16,15.90
2010,05,07,16,17,15.90
2010,05,07,16,18,16.00
2010,05,07,16,19,16.10
2010,05,07,16,20,16.00
2010,05,07,16,21,16.10
2010,05,07,16,22,16.10
2010,05,07,16,23,16.10
2010,05,07,16,24,15.90
2010,05,07,16,25,15.80
2010,05,07,16,26,15.70
2010,05,07,16,27,15.70
2010,05,07,16,28,15.70
2010,05,07,16,29,15.70
2010,05,07,16,30,15.70
2010,05,07,16,31,15.90
2010,05,07,16,32,16.00
2010,05,07,16,33,16.00
2010,05,07,16,34,16.10
2010,05,07,16,35,16.10
2010,05,07,16,36,16.20
2010,05,07,16,37,16.20
2010,05,07,16,38,16.20
2010,05,07,16,39,16.10
2010,05,07,16,40,16.00
2010,05,07,16,41,16.00
2010,05,07,16,42,16.00
2010,05,07,16,43,16.10
2010,05,07,16,44,16.10
2010,05,07,16,45,16.00
2010,05,07,16,46,16.00
2010,05,07,16,47,16.00
2010,05,07,16,48,15.90
2010,05,07,16,49,15.80
2010,05,07,16,50,15.80
2010,05,07,16,51,15.80
2010,05,07,16,52,15.70
2010,05,07,16,53,15.50
2010,05,07,16,54,15.30
2010,05,07,16,55,15.20
2010,05,07,16,56,15.20
2010,05,07,16,57,15.20
2010,05,07,16,58,15.20
2010,05,07,16,59,15.00
2010,05,07,17,00,15.00
2010,05,07,17,01,15.00
2010,05,07,17,02,15.00
2010,05,07,17,03,15.00
2010,05,07,17,04,15.00
2010,05,07,17,05,15.00
2010,05,07,17,06,15.00
2010,05,07,17,07,15.00
2010,05,07,17,08,15.00
2010,05,07,17,09,15.00
2010,05,07,17,10,15.00
2010,05,07,17,11,15.10
2010,05,07,17,12,15.20
2010,05,07,17,13,15.30
2010,05,07,17,14,15.20
2010,05,07,17,15,15.10
2010,05,07,17,16,15.00
2010,05,07,17,17,15.00
2010,05,07,17,18,15.00
2010,05,07,17,19,15.00
2010,05,07,17,20,15.10
2010,05,07,17,21,15.20
2010,05,07,17,22,15.30
2010,05,07,17,23,15.40
2010,05,07,17,24,15.40
2010,05,07,17,25,15.30
2010,05,07,17,26,15.20
2010,05,07,17,27,15.10
2010,05,07,17,28,15.00
2010,05,07,17,29,15.00
2010,05,07,17,30,15.00
2010,05,07,17,31,15.00
2010,05,07,17,32,15.00
2010,05,07,17,33,15.00
2010,05,07,17,34,15.00
2010,05,07,17,35,15.00
2010,05,07,17,36,15.00
2010,05,07,17,37,14.90
2010,05,07,17,38,14.90
2010,05,07,17,39,14.90
2010,05,07,17,40,15.00
2010,05,07,17,41,15.00
2010,05,07,17,42,15.00